Evansville, IN

5:17 AM CDT on June 23, 2017 (GMT -0500)
Evansville Regional

Weather History for KEVV - July, 2013

Change the Weather History Date:

Monday, July 1, 2013

  Actual Average Record
Temperature  
Mean Temperature 70 °F 78 °F  
Max Temperature 75 °F 88 °F 105 °F (2012)
Min Temperature 65 °F 67 °F 53 °F (1948)
Degree Days  
Heating Degree Days 0 0  
Month to date heating degree days 0 0  
Since 1 June heating degree days 1 6  
Since 1 July heating degree days 0 0  
Cooling Degree Days 5 13  
Month to date cooling degree days 5 13  
Year to date cooling degree days 472 446  
Since 1 June cooling degree days 301 311  
Growing Degree Days 20 (Base 50)    
Moisture  
Dew Point 65 °F    
Average Humidity 89    
Maximum Humidity 93    
Minimum Humidity 84    
Precipitation  
Precipitation 0.24 in 0.13 in 4.75 in (1897)
Month to date precipitation 0.24 0.13  
Year to date precipitation 30.34 24.15  
Snow  
Snow 0.00 in 0.00 in T in (1954)
Month to date snowfall 0.0 0.0  
Since 1 June snowfall 0.0 0.0  
Since 1 July snowfall 0.0 0.0  
Snow Depth 0.00 in    
Sea Level Pressure  
Sea Level Pressure 29.86 in    
Wind  
Wind Speed 5 mph (North)    
Max Wind Speed 13 mph    
Max Gust Speed 24 mph    
Visibility 8 miles    
Events Rain , Thunderstorm    
T = Trace of Precipitation, MM = Missing Value Source: NWS Daily Summary

Daily Weather History Graph

Daily Weather History Graph

Search for Another Location

Airport or City:

Trip Planner

Search our weather history database for the weather conditions in past years. The results will help you decide how hot, cold, wet, or windy it might be!

Date:

Astronomy

Jul. 01, 2013 Rise Set
Actual Time 5:31 AM CDT 8:16 PM CDT
Civil Twilight 4:59 AM CDT 8:48 PM CDT
Nautical Twilight 4:20 AM CDT 9:27 PM CDT
Astronomical Twilight 3:36 AM CDT 10:11 PM CDT
Moon 12:57 AM CDT (7/1) 2:34 PM CDT (7/1)
Length of Visible Light 15h 48m
Length of Day
14h 45m
Waning Crescent, 35% of the Moon is Illuminated
Jul 1
Waning Crescent
Jul 8
New
Jul 15
First Quarter
Jul 22
Full
Jul 29
Last Quarter

Hourly Weather History & Observations

Time (CDT) Temp. Dew Point Humidity Pressure Visibility Wind Dir Wind Speed Gust Speed Precip Events Conditions
12:54 AM 68.0 °F 64.9 °F 90% 29.83 in 10.0 mi North 3.5 mph - N/A   Mostly Cloudy
1:26 AM 68.0 °F 64.4 °F 88% 29.83 in 10.0 mi North 4.6 mph - N/A   Mostly Cloudy
1:54 AM 68.0 °F 64.9 °F 90% 29.81 in 10.0 mi North 4.6 mph - N/A   Overcast
2:42 AM 68.0 °F 64.4 °F 88% 29.81 in 10.0 mi NNE 5.8 mph - N/A   Overcast
2:54 AM 68.0 °F 64.9 °F 90% 29.81 in 10.0 mi North 5.8 mph - N/A   Overcast
3:03 AM 68.0 °F 64.4 °F 88% 29.81 in 10.0 mi North 5.8 mph - N/A   Overcast
3:54 AM 68.0 °F 64.9 °F 90% 29.81 in 10.0 mi NNE 6.9 mph - N/A   Overcast
4:54 AM 68.0 °F 64.9 °F 90% 29.82 in 10.0 mi NNE 6.9 mph - N/A   Overcast
5:54 AM 68.0 °F 64.9 °F 90% 29.83 in 10.0 mi North 5.8 mph - N/A   Overcast
6:26 AM 68.0 °F 64.4 °F 88% 29.83 in 7.0 mi NNE 5.8 mph - 0.00 in Rain Light Rain
6:54 AM 68.0 °F 64.9 °F 90% 29.83 in 10.0 mi North 4.6 mph - 0.00 in   Overcast
7:04 AM 68.0 °F 64.4 °F 88% 29.84 in 9.0 mi North 4.6 mph - N/A   Overcast
7:37 AM 66.2 °F 64.4 °F 94% 29.85 in 2.0 mi North 5.8 mph - 0.03 in Rain Heavy Rain
7:47 AM 66.2 °F 64.4 °F 94% 29.85 in 3.0 mi North 3.5 mph - 0.08 in Rain Rain
7:54 AM 66.9 °F 64.9 °F 93% 29.85 in 4.0 mi Calm Calm - 0.09 in Rain Rain
8:03 AM 66.2 °F 64.4 °F 94% 29.86 in 2.5 mi NNW 5.8 mph - 0.01 in Rain Light Rain
8:48 AM 66.2 °F 64.4 °F 94% 29.87 in 2.5 mi NNW 6.9 mph - 0.01 in Rain , Thunderstorm Light Rain
8:54 AM 66.0 °F 64.0 °F 93% 29.86 in 2.5 mi North 5.8 mph - 0.01 in Rain , Thunderstorm Light Rain
9:12 AM 66.2 °F 62.6 °F 88% 29.86 in 2.5 mi North 5.8 mph - 0.00 in Rain , Thunderstorm Light Rain
9:17 AM 66.2 °F 64.4 °F 94% 29.86 in 2.5 mi NNW 3.5 mph - 0.00 in Rain Light Rain
9:43 AM 66.2 °F 64.4 °F 94% 29.86 in 10.0 mi NNE 4.6 mph - 0.02 in Rain Light Rain
9:54 AM 66.9 °F 64.0 °F 90% 29.86 in 5.0 mi NNE 5.8 mph - 0.02 in Rain Light Rain
10:01 AM 66.2 °F 64.4 °F 94% 29.87 in 9.0 mi NNE 8.1 mph - 0.00 in Rain Light Rain
10:21 AM 68.0 °F 64.4 °F 88% 29.87 in 10.0 mi NE 10.4 mph - 0.01 in Rain Light Rain
10:50 AM 69.8 °F 64.4 °F 83% 29.87 in 10.0 mi North 5.8 mph - 0.02 in Thunderstorm Mostly Cloudy
10:54 AM 69.1 °F 64.9 °F 87% 29.86 in 10.0 mi NE 8.1 mph - 0.02 in Thunderstorm Mostly Cloudy
11:18 AM 68.0 °F 64.4 °F 88% 29.87 in 10.0 mi NNE 6.9 mph - N/A   Overcast
11:44 AM 68.0 °F 64.4 °F 88% 29.86 in 10.0 mi NNE 6.9 mph - 0.00 in Rain Light Rain
11:54 AM 68.0 °F 64.9 °F 90% 29.86 in 6.0 mi NNE 6.9 mph - 0.00 in Rain Light Rain
12:54 PM 68.0 °F 66.0 °F 93% 29.87 in 6.0 mi NNE 5.8 mph - 0.02 in Rain Light Rain
1:01 PM 68.0 °F 64.4 °F 88% 29.88 in 7.0 mi NNE 4.6 mph - 0.01 in Rain Light Rain
1:27 PM 69.8 °F 64.4 °F 83% 29.87 in 8.0 mi NNE 5.8 mph - 0.03 in Rain Light Rain
1:54 PM 69.1 °F 64.9 °F 87% 29.87 in 7.0 mi Calm Calm - 0.05 in Rain Light Rain
2:17 PM 69.8 °F 66.2 °F 88% 29.88 in 8.0 mi NNW 3.5 mph - 0.01 in Rain Light Rain
2:54 PM 70.0 °F 66.9 °F 90% 29.87 in 6.0 mi NW 5.8 mph - 0.02 in Rain Light Rain
3:54 PM 72.0 °F 66.9 °F 84% 29.86 in 10.0 mi NNW 9.2 mph - 0.01 in Rain Light Rain
4:54 PM 72.0 °F 64.0 °F 76% 29.87 in 10.0 mi NNW 9.2 mph - N/A   Mostly Cloudy
5:54 PM 70.0 °F 64.9 °F 84% 29.86 in 10.0 mi NW 9.2 mph - N/A   Mostly Cloudy
6:54 PM 70.0 °F 64.0 °F 81% 29.88 in 10.0 mi NW 8.1 mph - N/A   Mostly Cloudy
7:01 PM 69.8 °F 64.4 °F 83% 29.89 in 10.0 mi NNW 3.5 mph - N/A   Mostly Cloudy
7:54 PM 69.1 °F 64.0 °F 84% 29.87 in 10.0 mi Calm Calm - 0.00 in   Overcast
8:54 PM 68.0 °F 64.9 °F 90% 29.88 in 10.0 mi Calm Calm - N/A   Overcast
9:54 PM 66.9 °F 64.0 °F 90% 29.89 in 10.0 mi Calm Calm - N/A   Partly Cloudy
10:54 PM 66.9 °F 64.9 °F 93% 29.89 in 10.0 mi NE 3.5 mph - N/A   Mostly Cloudy
11:15 PM 66.2 °F 64.4 °F 94% 29.90 in 9.0 mi Calm Calm - N/A   Mostly Cloudy
11:54 PM 66.0 °F 64.0 °F 93% 29.88 in 6.0 mi Calm Calm - N/A   Clear